Flag for Australia Weather past 2 weeks in Melbourne, Victoria, Australia

Now
55 °F

Clear.


Feels Like: 55 °F
Forecast: 40 / 64 °F
Wind: No wind

Location: Melbourne Airport

Current Time: Aug 28, 2014 at 7:33:08 PM

Latest Report: Aug 28, 2014 at 7:00 PM


Visibility: 10 mi

Pressure: 30.33 "Hg

Humidity: 63%

Dew point: 43 °F

Location of MelbourneLocation

Historic Weather in Melbourne — Graph

°F

Melbourne temperature yesterday

Maximum temperature yesterday: 66 °F (at 1:30 PM)
Minimum temperature yesterday: 41 °F (at 7:00 AM)
Average temperature yesterday: 52 °F

Past Weeks' High & Low Weather Summary

 TemperatureHumidityPressure
High68 °F (Aug 28, 2:00 PM)100% (Aug 13, 6:30 PM)30.60 "Hg (Aug 13, 6:30 PM)
Low37 °F (Aug 15, 1:30 AM)34% (Aug 22, 3:00 PM)29.98 "Hg (Aug 17, 2:00 PM)
Average51 °F78%30.30 "Hg
* Reported Aug 13 6:00 PM — Aug 28 6:00 PM, Melbourne, Weather by CustomWeather, © 2014

Note: Actual official high and low records may vary slightly from our data, if they occured in-between our weather recording intervals... More about our weather records

Advertising

Melbourne weather history for previous 24 hours

 ConditionsComfort  
Time TempWeatherWind HumidityBarometerVisibility
6:00 PM
Aug 28
57 °FClear.6 mph63%30.33 "Hg10 mi
5:30 PM59 °FClear.8 mph55%30.33 "Hg10 mi
5:00 PM61 °FClear.9 mph55%30.30 "Hg10 mi
4:30 PM64 °FSunny.10 mph46%30.30 "Hg10 mi
4:00 PM64 °FSunny.10 mph49%30.30 "Hg10 mi
3:30 PM66 °FSunny.12 mph46%30.30 "Hg10 mi
3:00 PM68 °FSunny.3 mph38%30.30 "Hg10 mi
2:30 PM68 °FSunny.3 mph38%30.30 "Hg10 mi
2:00 PM68 °FSunny.6 mph40%30.30 "Hg10 mi
1:30 PM66 °FSunny.3 mph43%30.30 "Hg10 mi
1:00 PM66 °FSunny.1 mph46%30.33 "Hg10 mi
12:30 PM66 °FSunny.5 mph46%30.33 "Hg10 mi
12:00 PM64 °FSunny.2 mph52%30.36 "Hg10 mi
11:30 AM63 °FPassing clouds.5 mph52%30.36 "HgN/A
11:00 AM61 °FSunny.1 mph55%30.36 "Hg10 mi
10:30 AM63 °FPartly sunny.3 mph52%30.39 "HgN/A
10:00 AM59 °FScattered clouds.2 mph63%30.39 "HgN/A
9:30 AM55 °FSunny.5 mph72%30.39 "Hg10 mi
9:00 AM50 °FSunny.6 mph82%30.39 "Hg10 mi
8:30 AM46 °FSunny.6 mph87%30.39 "Hg10 mi
8:00 AM45 °FFog.3 mph87%30.39 "HgN/A
7:30 AM41 °FFog.7 mph87%30.39 "Hg6 mi
7:00 AM37 °FFog.6 mph93%30.39 "Hg6 mi
6:00 AM39 °FPassing clouds.7 mph93%30.36 "Hg6 mi
5:30 AM37 °FLight fog.8 mph93%30.36 "Hg5 mi
5:00 AM39 °FLight fog.7 mph93%30.36 "Hg4 mi
4:30 AM37 °FLight fog.7 mph93%30.36 "Hg4 mi
4:00 AM37 °FPassing clouds.5 mph100%30.36 "Hg3 mi
3:30 AM41 °FLight fog.5 mph93%30.36 "HgN/A
3:00 AM39 °FPassing clouds.3 mph93%30.36 "HgN/A
2:00 AM39 °FPassing clouds.No wind93%30.36 "HgN/A
1:00 AM39 °FPassing clouds.No wind93%30.39 "HgN/A
12:00 AM41 °FPassing clouds.6 mph100%30.39 "HgN/A
11:00 PM
Aug 27
43 °FFog.No wind100%30.39 "Hg1 mi
10:54 PM43 °FFog.No wind100%30.39 "Hg1 mi
10:30 PM45 °FFog.3 mph100%30.39 "Hg0 mi
10:00 PM46 °FFog.2 mph100%30.39 "Hg0 mi
9:30 PM48 °FFog.5 mph100%30.36 "Hg0 mi
9:00 PM48 °FFog.6 mph100%30.36 "Hg0 mi
8:04 PM48 °FFog.3 mph94%30.36 "Hg0 mi
8:00 PM48 °FFog.5 mph94%30.36 "Hg1 mi
7:53 PM48 °FFog.6 mph94%30.36 "Hg3 mi
7:00 PM50 °FClear.6 mph94%30.33 "Hg10 mi
Weather by CustomWeather, © 2014

See weather overviewHow to use our weather pages